FW9604 Weather Reports


time (UTC)temp
C
wind
direction
speed
KPH
gust
KPH
rain 1hr
cm
rain 24hr
cm
rain mn
cm
humidity
%
barometer
mb
20260508071539 11 68 3.2 12.9 0.00 0.00 0.00 77 1014.4
20260508070029 11 67 6.4 14.5 0.00 0.00 0.00 77 1014.3
20260508064532 10 75 6.4 12.9 0.00 0.00 0.00 77 1014.1
20260508063046 10 72 3.2 11.3 0.00 0.00 0.00 78 1014.1
20260508061530 10 87 4.8 14.5 0.00 0.00 0.00 78 1013.9
20260508060035 10 69 3.2 9.7 0.00 0.00 0.00 79 1013.8
20260508054531 10 0 0.0 4.8 0.00 0.00 0.00 79 1014.0
20260508053033 10 0 0.0 3.2 0.00 0.00 0.00 79 1014.0
20260508051534 10 69 1.6 4.8 0.00 0.00 0.00 80 1014.0
20260508050033 10 77 0.0 3.2 0.00 0.00 0.00 83 1013.9
20260508044530 9 84 0.0 3.2 0.00 0.00 0.00 83 1014.0
20260508043030 9 0 0.0 0.0 0.00 0.00 0.00 84 1013.9
20260508041530 10 0 0.0 3.2 0.00 0.00 0.00 84 1013.8
20260508040030 10 0 0.0 3.2 0.00 0.00 0.00 83 1013.7
20260508034528 10 342 0.0 6.4 0.00 0.00 0.00 83 1013.8
20260508033026 10 0 0.0 1.6 0.00 0.00 0.00 82 1013.7
20260508031531 10 0 0.0 1.6 0.00 0.00 0.00 81 1013.8
20260508030028 10 0 0.0 4.8 0.00 0.00 0.00 81 1013.8
20260508024542 10 0 0.0 4.8 0.00 0.00 0.00 80 1013.9
20260508023029 10 0 0.0 4.8 0.00 0.00 0.00 80 1014.0
20260508021530 10 0 0.0 3.2 0.00 0.00 0.00 79 1014.0
20260508020029 10 0 0.0 1.6 0.00 0.00 0.00 78 1014.0
20260508014534 10 0 0.0 1.6 0.00 0.00 0.00 78 1014.0
20260508013029 10 0 1.6 3.2 0.00 0.00 0.00 78 1013.9
20260508011530 10 140 0.0 6.4 0.00 0.00 0.00 78 1014.0
20260508010034 10 67 3.2 8.0 0.00 0.00 0.00 77 1014.0
20260508004528 10 83 4.8 11.3 0.00 0.00 0.00 77 1014.0
20260508003031 10 61 1.6 6.4 0.00 0.00 0.00 83 1014.2
20260508001532 9 103 1.6 4.8 0.00 0.00 0.00 80 1014.3
20260508000030 9 82 0.0 3.2 0.00 0.00 0.00 81 1014.4
20260507234530 8 0 0.0 6.4 0.00 0.00 0.00 82 1014.4
20260507233040 8 0 0.0 0.0 0.00 0.00 0.00 82 1014.4
20260507231534 8 0 0.0 3.2 0.00 0.00 0.00 81 1014.6
20260507230036 9 114 1.6 3.2 0.00 0.00 0.00 80 1014.6
20260507224540 9 0 0.0 6.4 0.00 0.00 0.00 80 1014.5
20260507223033 10 0 0.0 3.2 0.00 0.00 0.00 79 1014.5
20260507221535 10 0 0.0 6.4 0.00 0.00 0.00 79 1014.5
20260507220028 10 121 1.6 8.0 0.00 0.00 0.00 79 1014.5
20260507214531 10 134 3.2 9.7 0.00 0.00 0.00 78 1014.6
20260507213031 10 159 0.0 4.8 0.00 0.00 0.00 77 1014.6
20260507211531 10 0 0.0 3.2 0.00 0.00 0.00 76 1014.4
20260507210030 10 0 0.0 3.2 0.00 0.00 0.00 76 1014.5
20260507204530 10 0 0.0 3.2 0.00 0.00 0.00 76 1014.2
20260507203038 11 0 1.6 6.4 0.00 0.00 0.00 75 1014.2
20260507201529 11 180 1.6 9.7 0.00 0.00 0.00 74 1013.9
20260507200028 11 180 1.6 8.0 0.00 0.00 0.00 73 1013.8
20260507194529 11 157 0.0 6.4 0.00 0.00 0.00 73 1013.7
20260507193030 11 169 1.6 6.4 0.00 0.00 0.00 72 1013.7
20260507191528 12 180 1.6 6.4 0.00 0.00 0.00 71 1013.7
20260507190028 12 0 0.0 8.0 0.00 0.00 0.00 71 1013.6
20260507184529 12 131 3.2 9.7 0.00 0.00 0.00 70 1013.6
20260507183030 12 0 0.0 9.7 0.00 0.00 0.00 69 1013.7
20260507181532 13 133 3.2 11.3 0.00 0.00 0.00 68 1013.5
20260507180034 12 0 1.6 11.3 0.00 0.00 0.00 70 1013.3
20260507174528 13 144 1.6 11.3 0.00 0.00 0.00 70 1013.3
20260507173032 13 142 4.8 12.9 0.00 0.00 0.00 69 1013.4
20260507171529 13 157 3.2 14.5 0.00 0.00 0.00 70 1013.3
20260507170030 13 196 3.2 16.1 0.00 0.00 0.00 70 1013.3
20260507164534 13 164 3.2 14.5 0.00 0.00 0.00 69 1013.4
20260507163030 13 0 3.2 12.9 0.00 0.00 0.00 68 1013.3
20260507161530 14 129 4.8 14.5 0.00 0.00 0.00 67 1013.3
20260507160028 14 117 1.6 14.5 0.00 0.00 0.00 68 1013.3
20260507154531 15 175 4.8 16.1 0.00 0.00 0.00 65 1013.4
20260507153027 14 219 4.8 20.9 0.00 0.00 0.00 64 1013.3
20260507151528 15 141 6.4 17.7 0.00 0.00 0.00 62 1013.3
20260507150031 15 183 4.8 22.5 0.00 0.00 0.00 62 1013.4
20260507144533 16 190 4.8 17.7 0.00 0.00 0.00 59 1013.4
20260507143035 16 168 4.8 16.1 0.00 0.00 0.00 61 1013.4
20260507141531 16 153 4.8 14.5 0.00 0.00 0.00 59 1013.6
20260507140032 15 172 6.4 14.5 0.00 0.00 0.00 62 1013.7
20260507134532 15 139 6.4 16.1 0.00 0.00 0.00 62 1013.7
20260507133028 15 174 6.4 17.7 0.00 0.00 0.00 59 1013.9
20260507131534 15 201 8.0 17.7 0.00 0.00 0.00 57 1014.0
20260507130029 15 172 8.0 17.7 0.00 0.00 0.00 60 1014.0
20260507124532 15 144 6.4 17.7 0.00 0.00 0.00 61 1014.0
20260507123029 15 209 3.2 20.9 0.00 0.00 0.00 61 1013.9
20260507121531 15 144 8.0 22.5 0.00 0.00 0.00 58 1013.8
20260507120033 13 141 6.4 17.7 0.00 0.00 0.00 71 1013.7
20260507114532 12 138 4.8 22.5 0.00 0.00 0.00 72 1013.7
20260507113031 13 63 9.7 24.1 0.00 0.00 0.00 67 1013.7
20260507111531 15 106 4.8 20.9 0.00 0.00 0.00 64 1013.6
20260507110031 14 72 8.0 22.5 0.00 0.00 0.00 63 1013.6
20260507104534 14 130 11.3 27.4 0.00 0.00 0.00 65 1013.6
20260507103033 14 64 9.7 20.9 0.00 0.00 0.00 62 1013.7
20260507101531 14 86 8.0 24.1 0.00 0.00 0.00 61 1013.6
20260507100034 13 101 8.0 24.1 0.00 0.00 0.00 62 1013.7
20260507094534 13 69 9.7 19.3 0.00 0.00 0.00 62 1013.5
20260507093034 13 115 11.3 22.5 0.00 0.00 0.00 63 1013.6
20260507091541 12 72 9.7 20.9 0.00 0.00 0.00 66 1013.4
20260507090037 13 101 6.4 24.1 0.00 0.00 0.00 72 1013.5
20260507084531 12 68 9.7 20.9 0.00 0.00 0.00 76 1013.4
20260507083032 12 84 6.4 24.1 0.00 0.00 0.00 77 1013.4
20260507081530 11 56 6.4 19.3 0.00 0.00 0.00 78 1013.5
20260507080031 11 121 6.4 19.3 0.00 0.00 0.00 78 1013.5
20260507074531 11 61 4.8 12.9 0.00 0.00 0.00 81 1013.4
20260507073031 11 69 4.8 12.9 0.00 0.00 0.00 80 1013.4